,,,PA_Meas_PMT16A,,PR_Meas_QMR101_102,,RH_Meas_QMH101,,SR_Meas_QMS101,,TA_Meas_QMH101,,GenWind,,GenWind,
date,time,status,PA,status,PR,status,RH,status,SR,status,TA,status,DirAvg,status,SpdAvg,
2009-11-22, 00:00:05,VALID,1002.05,VALID,0,VALID,86.3971,VALID,0.100563,VALID,26.8368,VALID,13,VALID,0.804688,
2009-11-22, 00:01:05,VALID,1002.02,VALID,0,VALID,86.3818,VALID,0.100563,VALID,26.8563,VALID,25,VALID,0.873047,
2009-11-22, 00:02:05,VALID,1002.02,VALID,0,VALID,86.5039,VALID,0.100563,VALID,26.8173,VALID,27,VALID,0.581641,
2009-11-22, 00:03:05,VALID,1002,VALID,0,VALID,86.5878,VALID,0.100563,VALID,26.7978,VALID,26,VALID,1.025,
2009-11-22, 00:04:05,VALID,1002,VALID,0,VALID,86.4657,VALID,0.100563,VALID,26.8368,VALID,23,VALID,0.921875,
2009-11-22, 00:05:05,VALID,1001.96,VALID,0,VALID,86.0919,VALID,0,VALID,26.9342,VALID,8,VALID,0.574219,
2009-11-22, 00:06:05,VALID,1001.92,VALID,0,VALID,85.8859,VALID,0.100563,VALID,26.9537,VALID,15,VALID,0.878906,
2009-11-22, 00:07:05,VALID,1001.9,VALID,0,VALID,85.6571,VALID,0.100563,VALID,26.9926,VALID,23,VALID,1.62188,
2009-11-22, 00:08:05,VALID,1001.92,VALID,0,VALID,85.4969,VALID,0.100563,VALID,27.0531,VALID,19,VALID,0.577734,
2009-11-22, 00:09:05,VALID,1001.9,VALID,0,VALID,85.5426,VALID,0.100563,VALID,27.0142,VALID,15,VALID,0.548437,
2009-11-22, 00:10:05,VALID,1001.91,VALID,0,VALID,85.6876,VALID,0,VALID,26.9732,VALID,357,VALID,0.622266,
2009-11-22, 00:11:05,VALID,1001.94,VALID,0,VALID,85.8173,VALID,0.100563,VALID,26.9557,VALID,357,VALID,0.344531,
2009-11-22, 00:12:05,VALID,1001.92,VALID,0,VALID,86.0309,VALID,0.100563,VALID,26.9147,VALID,28,VALID,0.499219,
2009-11-22, 00:13:05,VALID,1001.91,VALID,0,VALID,86.2064,VALID,0.100563,VALID,26.8757,VALID,39,VALID,0.999609,
2009-11-22, 00:14:05,VALID,1001.85,VALID,0,VALID,86.2826,VALID,0.100563,VALID,26.8368,VALID,42,VALID,0.405469,
2009-11-22, 00:15:05,VALID,1001.84,VALID,0,VALID,86.3742,VALID,0.100563,VALID,26.8368,VALID,13,VALID,0.483984,
2009-11-22, 00:16:05,VALID,1001.82,VALID,0,VALID,86.4505,VALID,0.100563,VALID,26.8388,VALID,27,VALID,0.48125,
2009-11-22, 00:17:05,VALID,1001.79,VALID,0,VALID,86.5802,VALID,0.100563,VALID,26.7978,VALID,24,VALID,0.779297,
2009-11-22, 00:18:05,VALID,1001.8,VALID,0,VALID,86.6793,VALID,0.100563,VALID,26.7589,VALID,23,VALID,0.903906,
2009-11-22, 00:19:05,VALID,1001.76,VALID,0,VALID,86.7633,VALID,0.100563,VALID,26.7589,VALID,23,VALID,0.607813,
2009-11-22, 00:20:05,VALID,1001.78,VALID,0,VALID,86.8701,VALID,0.100563,VALID,26.7394,VALID,20,VALID,0.429297,
2009-11-22, 00:21:05,VALID,1001.77,VALID,0,VALID,86.9387,VALID,0.100563,VALID,26.7199,VALID,20,VALID,0.318359,
2009-11-22, 00:22:05,VALID,1001.79,VALID,0,VALID,86.9311,VALID,0.100563,VALID,26.7414,VALID,7,VALID,0.466016,
2009-11-22, 00:23:05,VALID,1001.75,VALID,0,VALID,86.9082,VALID,0.100563,VALID,26.7199,VALID,10,VALID,0.725781,
2009-11-22, 00:24:05,VALID,1001.77,VALID,0,VALID,86.8624,VALID,0.100563,VALID,26.7004,VALID,7,VALID,0.584375,
2009-11-22, 00:25:05,VALID,1001.74,VALID,0,VALID,86.8853,VALID,0,VALID,26.7004,VALID,354,VALID,0.721875,
2009-11-22, 00:26:05,VALID,1001.77,VALID,0,VALID,87.0608,VALID,0,VALID,26.6614,VALID,16,VALID,0.627344,
2009-11-22, 00:27:05,VALID,1001.71,VALID,0,VALID,87.1447,VALID,0.100563,VALID,26.6809,VALID,355,VALID,0.814844,
2009-11-22, 00:28:05,VALID,1001.72,VALID,0,VALID,87.015,VALID,0.100563,VALID,26.7004,VALID,29,VALID,1.00898,
2009-11-22, 00:29:05,VALID,1001.71,VALID,0,VALID,86.9921,VALID,0.100563,VALID,26.6809,VALID,358,VALID,0.771875,
2009-11-22, 00:30:05,VALID,1001.74,VALID,0,VALID,86.9769,VALID,0.100563,VALID,26.6809,VALID,352,VALID,0.926172,
2009-11-22, 00:31:05,VALID,1001.73,VALID,0,VALID,86.9006,VALID,0.100563,VALID,26.7219,VALID,355,VALID,0.896484,
2009-11-22, 00:32:05,VALID,1001.72,VALID,0,VALID,86.8319,VALID,0,VALID,26.7199,VALID,359,VALID,0.885547,
2009-11-22, 00:33:05,VALID,1001.71,VALID,0,VALID,86.5802,VALID,0,VALID,26.7978,VALID,34,VALID,1.08789,
2009-11-22, 00:34:05,VALID,1001.71,VALID,0,VALID,86.3513,VALID,0.100563,VALID,26.8368,VALID,27,VALID,1.35781,
2009-11-22, 00:35:05,VALID,1001.7,VALID,0,VALID,86.1911,VALID,0.100563,VALID,26.8973,VALID,12,VALID,1.0832,
2009-11-22, 00:36:05,VALID,1001.7,VALID,0,VALID,86.1301,VALID,0.100563,VALID,26.8757,VALID,358,VALID,0.849219,
2009-11-22, 00:37:05,VALID,1001.66,VALID,0,VALID,86.1072,VALID,0.100563,VALID,26.8757,VALID,22,VALID,0.585938,
2009-11-22, 00:38:05,VALID,1001.67,VALID,0,VALID,86.1148,VALID,0.100563,VALID,26.8757,VALID,18,VALID,0.6875,
2009-11-22, 00:39:05,VALID,1001.68,VALID,0,VALID,86.1301,VALID,0.100563,VALID,26.8563,VALID,26,VALID,0.612109,
2009-11-22, 00:40:05,VALID,1001.68,VALID,0,VALID,86.214,VALID,0.100563,VALID,26.8368,VALID,25,VALID,0.4125,
2009-11-22, 00:41:05,VALID,1001.63,VALID,0,VALID,86.42,VALID,0.100563,VALID,26.7783,VALID,25,VALID,0.295312,
2009-11-22, 00:42:05,VALID,1001.63,VALID,0,VALID,86.6183,VALID,0.100563,VALID,26.7199,VALID,25,VALID,0.416406,
2009-11-22, 00:43:05,VALID,1001.61,VALID,0,VALID,86.8701,VALID,0.100563,VALID,26.6809,VALID,25,VALID,0.5125,
2009-11-22, 00:44:05,VALID,1001.64,VALID,0,VALID,87.1142,VALID,0.100563,VALID,26.603,VALID,25,VALID,0.621875,
2009-11-22, 00:45:05,VALID,1001.66,VALID,0,VALID,87.4193,VALID,0.100563,VALID,26.5446,VALID,27,VALID,0.537109,
2009-11-22, 00:46:05,VALID,1001.67,VALID,0,VALID,87.7474,VALID,0.100563,VALID,26.5056,VALID,13,VALID,0.611719,
2009-11-22, 00:47:05,VALID,1001.64,VALID,0,VALID,87.8694,VALID,0.100563,VALID,26.4667,VALID,12,VALID,0.5125,
2009-11-22, 00:48:05,VALID,1001.62,VALID,0,VALID,87.9991,VALID,0.100563,VALID,26.4472,VALID,19,VALID,0.866797,
2009-11-22, 00:49:05,VALID,1001.62,VALID,0,VALID,87.9915,VALID,0.100563,VALID,26.4257,VALID,2,VALID,0.636328,
2009-11-22, 00:50:05,VALID,1001.59,VALID,0,VALID,87.9457,VALID,0.100563,VALID,26.4667,VALID,350,VALID,0.744922,
2009-11-22, 00:51:05,VALID,1001.58,VALID,0,VALID,87.8237,VALID,0.100563,VALID,26.4861,VALID,356,VALID,0.424219,
2009-11-22, 00:52:05,VALID,1001.55,VALID,0,VALID,87.8008,VALID,0.100563,VALID,26.5271,VALID,9,VALID,1.14648,
2009-11-22, 00:53:04,VALID,1001.56,VALID,0,VALID,87.5414,VALID,0.100563,VALID,26.5835,VALID,26,VALID,1.19687,
2009-11-22, 00:54:04,VALID,1001.53,VALID,0,VALID,87.2057,VALID,0.100563,VALID,26.642,VALID,25,VALID,0.611719,
2009-11-22, 00:55:04,VALID,1001.54,VALID,0,VALID,86.9235,VALID,0.100563,VALID,26.7004,VALID,29,VALID,0.66875,
2009-11-22, 00:56:04,VALID,1001.51,VALID,0,VALID,86.8243,VALID,0.100563,VALID,26.7199,VALID,25,VALID,1.13125,
2009-11-22, 00:57:04,VALID,1001.5,VALID,0,VALID,86.7251,VALID,0.100563,VALID,26.7609,VALID,359,VALID,0.605078,
2009-11-22, 00:58:04,VALID,1001.51,VALID,0,VALID,86.6336,VALID,0,VALID,26.7629,VALID,349,VALID,0.601172,
2009-11-22, 00:59:04,VALID,1001.48,VALID,0,VALID,86.6412,VALID,0,VALID,26.7024,VALID,10,VALID,0.588672,
2009-11-22, 01:00:04,VALID,1001.47,VALID,0,VALID,86.7709,VALID,0,VALID,26.683,VALID,10,VALID,0.341797,
2009-11-22, 01:01:04,VALID,1001.44,VALID,0,VALID,86.9692,VALID,0,VALID,26.644,VALID,7,VALID,0.609766,
2009-11-22, 01:02:04,VALID,1001.45,VALID,0,VALID,87.076,VALID,0,VALID,26.605,VALID,12,VALID,0.592578,
2009-11-22, 01:03:04,VALID,1001.44,VALID,0,VALID,87.3278,VALID,0,VALID,26.5681,VALID,353,VALID,0.955469,
2009-11-22, 01:04:04,VALID,1001.44,VALID,0,VALID,87.4575,VALID,0,VALID,26.5271,VALID,6,VALID,0.528516,
2009-11-22, 01:05:04,VALID,1001.41,VALID,0,VALID,87.6482,VALID,0,VALID,26.5271,VALID,20,VALID,1.50391,
2009-11-22, 01:06:04,VALID,1001.38,VALID,0,VALID,87.2744,VALID,0,VALID,26.6245,VALID,11,VALID,0.607813,
2009-11-22, 01:07:04,VALID,1001.38,VALID,0,VALID,86.9464,VALID,0,VALID,26.644,VALID,351,VALID,0.646484,
2009-11-22, 01:08:04,VALID,1001.34,VALID,0,VALID,87.0532,VALID,0,VALID,26.5855,VALID,7,VALID,0.571094,
2009-11-22, 01:09:04,VALID,1001.35,VALID,0,VALID,87.3202,VALID,0,VALID,26.5466,VALID,14,VALID,0.405078,
2009-11-22, 01:10:04,VALID,1001.32,VALID,0,VALID,87.4956,VALID,0,VALID,26.5271,VALID,29,VALID,0.590625,
2009-11-22, 01:11:04,VALID,1001.32,VALID,0,VALID,87.6101,VALID,0,VALID,26.5076,VALID,20,VALID,0.472266,
2009-11-22, 01:12:04,VALID,1001.31,VALID,0,VALID,87.6482,VALID,0,VALID,26.5076,VALID,20,VALID,0.482031,
2009-11-22, 01:13:04,VALID,1001.33,VALID,0,VALID,87.7016,VALID,0,VALID,26.5271,VALID,1,VALID,0.675781,
2009-11-22, 01:14:04,VALID,1001.32,VALID,0,VALID,87.7245,VALID,0.100563,VALID,26.5251,VALID,355,VALID,0.754297,
2009-11-22, 01:15:04,VALID,1001.31,VALID,0,VALID,87.6635,VALID,0.100563,VALID,26.5251,VALID,3,VALID,0.682813,
2009-11-22, 01:16:04,VALID,1001.31,VALID,0,VALID,87.6253,VALID,0.100563,VALID,26.5056,VALID,356,VALID,0.587109,
2009-11-22, 01:17:04,VALID,1001.32,VALID,0,VALID,87.6787,VALID,0.100563,VALID,26.4861,VALID,356,VALID,0.357422,
2009-11-22, 01:18:04,VALID,1001.32,VALID,0,VALID,87.816,VALID,0,VALID,26.4472,VALID,356,VALID,0.435156,
2009-11-22, 01:19:04,VALID,1001.33,VALID,0,VALID,87.755,VALID,0.100563,VALID,26.4492,VALID,354,VALID,0.520703,
2009-11-22, 01:20:04,VALID,1001.32,VALID,0,VALID,87.7474,VALID,0.100563,VALID,26.3693,VALID,349,VALID,0.332031,
2009-11-22, 01:21:04,VALID,1001.31,VALID,0,VALID,87.8542,VALID,0.100563,VALID,26.3713,VALID,343,VALID,0.555859,
2009-11-22, 01:22:04,VALID,1001.34,VALID,0,VALID,87.9381,VALID,0.100563,VALID,26.3303,VALID,341,VALID,0.503906,
2009-11-22, 01:23:04,VALID,1001.32,VALID,0,VALID,88.1136,VALID,0,VALID,26.2524,VALID,340,VALID,0.544922,
2009-11-22, 01:24:04,VALID,1001.31,VALID,0,VALID,88.3882,VALID,0.100563,VALID,26.2154,VALID,340,VALID,0.556641,
2009-11-22, 01:25:04,VALID,1001.32,VALID,0,VALID,88.6628,VALID,0.100563,VALID,26.1355,VALID,341,VALID,0.501562,
2009-11-22, 01:26:04,VALID,1001.33,VALID,0,VALID,89.0519,VALID,0.100563,VALID,26.0966,VALID,340,VALID,0.515625,
2009-11-22, 01:27:04,VALID,1001.32,VALID,0,VALID,89.1511,VALID,0.100563,VALID,26.0576,VALID,340,VALID,0.347266,
2009-11-22, 01:28:04,VALID,1001.32,VALID,0,VALID,89.296,VALID,0,VALID,26.0401,VALID,340,VALID,0.550391,
2009-11-22, 01:29:04,VALID,1001.28,VALID,0,VALID,89.4334,VALID,0,VALID,26.0012,VALID,340,VALID,0.4875,
2009-11-22, 01:30:04,VALID,1001.29,VALID,0,VALID,89.6699,VALID,0,VALID,25.9836,VALID,340,VALID,0.392188,
2009-11-22, 01:31:04,VALID,1001.28,VALID,0,VALID,89.8301,VALID,0,VALID,25.9427,VALID,340,VALID,0.470703,
2009-11-22, 01:32:04,VALID,1001.25,VALID,0,VALID,89.975,VALID,0,VALID,25.9232,VALID,340,VALID,0.455469,
2009-11-22, 01:33:04,VALID,1001.26,VALID,0,VALID,90.0666,VALID,0,VALID,25.9038,VALID,340,VALID,0.256641,
2009-11-22, 01:34:04,VALID,1001.26,VALID,0,VALID,90.1429,VALID,0,VALID,25.8843,VALID,340,VALID,0.430859,
2009-11-22, 01:35:04,VALID,1001.26,VALID,0,VALID,90.3183,VALID,0,VALID,25.8863,VALID,340,VALID,0.503516,
2009-11-22, 01:36:04,VALID,1001.25,VALID,0,VALID,90.3793,VALID,0,VALID,25.8453,VALID,340,VALID,0.562109,
2009-11-22, 01:37:04,VALID,1001.24,VALID,0,VALID,90.4633,VALID,0,VALID,25.8259,VALID,340,VALID,0.552734,
2009-11-22, 01:38:04,VALID,1001.23,VALID,0,VALID,90.5548,VALID,0,VALID,25.8259,VALID,341,VALID,0.508984,
2009-11-22, 01:39:04,VALID,1001.2,VALID,0,VALID,90.5548,VALID,0,VALID,25.8064,VALID,341,VALID,0.280078,
2009-11-22, 01:40:04,VALID,1001.19,VALID,0,VALID,90.5624,VALID,0,VALID,25.7674,VALID,341,VALID,0.346094,
2009-11-22, 01:41:04,VALID,1001.14,VALID,0,VALID,90.593,VALID,0,VALID,25.7285,VALID,341,VALID,0.401172,
2009-11-22, 01:42:04,VALID,1001.12,VALID,0,VALID,90.6845,VALID,0,VALID,25.6895,VALID,341,VALID,0.162109,
2009-11-22, 01:43:04,VALID,1001.14,VALID,0,VALID,90.8676,VALID,0,VALID,25.6311,VALID,341,VALID,0.320313,
2009-11-22, 01:44:04,VALID,1001.14,VALID,0,VALID,91.0354,VALID,0,VALID,25.5921,VALID,341,VALID,0.270312,
2009-11-22, 01:45:04,VALID,1001.11,VALID,0,VALID,91.1117,VALID,0,VALID,25.5921,VALID,340,VALID,0.386719,
2009-11-22, 01:46:04,VALID,1001.12,VALID,0,VALID,91.2262,VALID,0,VALID,25.5921,VALID,340,VALID,0.472266,
2009-11-22, 01:47:04,VALID,1001.12,VALID,0,VALID,91.3101,VALID,0,VALID,25.5727,VALID,340,VALID,0.310547,
2009-11-22, 01:48:04,VALID,1001.09,VALID,0,VALID,91.3482,VALID,0,VALID,25.5532,VALID,340,VALID,0.240234,
2009-11-22, 01:49:04,VALID,1001.09,VALID,0,VALID,91.455,VALID,0,VALID,25.5727,VALID,340,VALID,0.469141,
2009-11-22, 01:50:04,VALID,1001.06,VALID,0,VALID,91.5542,VALID,0,VALID,25.5513,VALID,340,VALID,0.441797,
2009-11-22, 01:51:04,VALID,1001.06,VALID,0,VALID,91.6686,VALID,0,VALID,25.5921,VALID,337,VALID,0.646094,
2009-11-22, 01:52:04,VALID,1001.03,VALID,0,VALID,91.6991,VALID,0,VALID,25.5921,VALID,342,VALID,0.35,
2009-11-22, 01:53:04,VALID,1001.06,VALID,0,VALID,91.7373,VALID,0,VALID,25.6311,VALID,347,VALID,0.534375,
2009-11-22, 01:54:04,VALID,1001.03,VALID,0,VALID,91.7525,VALID,0,VALID,25.6506,VALID,339,VALID,0.451562,
2009-11-22, 01:55:04,VALID,1001.02,VALID,0,VALID,91.7068,VALID,0,VALID,25.67,VALID,340,VALID,0.59375,
2009-11-22, 01:56:04,VALID,1001.02,VALID,0,VALID,91.5771,VALID,0,VALID,25.6895,VALID,342,VALID,0.462891,
2009-11-22, 01:57:04,VALID,1001.01,VALID,0,VALID,91.4855,VALID,0,VALID,25.6681,VALID,341,VALID,0.55625,
2009-11-22, 01:58:04,VALID,1001.03,VALID,0,VALID,91.4169,VALID,0,VALID,25.7285,VALID,334,VALID,0.242188,
2009-11-22, 01:59:04,VALID,1001.02,VALID,0,VALID,91.3101,VALID,0,VALID,25.7071,VALID,335,VALID,0.397656,
2009-11-22, 02:00:04,VALID,1001.01,VALID,0,VALID,91.2872,VALID,0,VALID,25.7071,VALID,345,VALID,0.391016,
2009-11-22, 02:01:04,VALID,1001,VALID,0,VALID,91.3558,VALID,0,VALID,25.748,VALID,345,VALID,0.462891,
2009-11-22, 02:02:04,VALID,1000.98,VALID,0,VALID,91.2185,VALID,0,VALID,25.7674,VALID,345,VALID,0.403906,
2009-11-22, 02:03:04,VALID,1000.99,VALID,0,VALID,91.1422,VALID,0,VALID,25.7869,VALID,345,VALID,0.612891,
2009-11-22, 02:04:04,VALID,1001.03,VALID,0,VALID,91.0278,VALID,0,VALID,25.8044,VALID,345,VALID,0.379297,
2009-11-22, 02:05:04,VALID,1001.01,VALID,0,VALID,90.9363,VALID,0,VALID,25.8064,VALID,330,VALID,0.496484,
2009-11-22, 02:06:04,VALID,1001.01,VALID,0,VALID,90.7379,VALID,0,VALID,25.8259,VALID,322,VALID,0.417969,
2009-11-22, 02:07:04,VALID,1001.02,VALID,0,VALID,90.7837,VALID,0,VALID,25.8259,VALID,322,VALID,0.484375,
2009-11-22, 02:08:04,VALID,1001.02,VALID,0,VALID,90.7684,VALID,0,VALID,25.8064,VALID,335,VALID,0.321484,
2009-11-22, 02:09:04,VALID,1001.05,VALID,0,VALID,90.8218,VALID,0,VALID,25.8064,VALID,335,VALID,0.446875,
2009-11-22, 02:10:04,VALID,1001.04,VALID,0,VALID,90.7913,VALID,0,VALID,25.785,VALID,336,VALID,0.445703,
2009-11-22, 02:11:04,VALID,1001.03,VALID,0,VALID,90.7303,VALID,0,VALID,25.7674,VALID,335,VALID,0.407031,
2009-11-22, 02:12:04,VALID,1001.03,VALID,0,VALID,90.776,VALID,0,VALID,25.7071,VALID,335,VALID,0.447266,
2009-11-22, 02:13:04,VALID,1001.05,VALID,0,VALID,90.9897,VALID,0,VALID,25.6876,VALID,335,VALID,0.390625,
2009-11-22, 02:14:04,VALID,1001.04,VALID,0,VALID,91.1422,VALID,0,VALID,25.6895,VALID,335,VALID,0.371094,
2009-11-22, 02:15:04,VALID,1001.03,VALID,0,VALID,91.2872,VALID,0,VALID,25.6895,VALID,335,VALID,0.267188,
2009-11-22, 02:16:04,VALID,1001.03,VALID,0,VALID,91.333,VALID,0,VALID,25.67,VALID,337,VALID,0.387109,
2009-11-22, 02:17:04,VALID,1001.05,VALID,0,VALID,91.3406,VALID,0,VALID,25.6486,VALID,339,VALID,0.4625,
2009-11-22, 02:18:04,VALID,1001.06,VALID,0,VALID,91.4169,VALID,0,VALID,25.6895,VALID,339,VALID,0.412891,
2009-11-22, 02:19:04,VALID,1001.05,VALID,0,VALID,91.4245,VALID,0,VALID,25.6681,VALID,339,VALID,0.418359,
2009-11-22, 02:20:04,VALID,1001.03,VALID,0,VALID,91.4321,VALID,0,VALID,25.6486,VALID,339,VALID,0.431641,
2009-11-22, 02:21:04,VALID,1001.03,VALID,0,VALID,91.3482,VALID,0,VALID,25.6681,VALID,339,VALID,0.387891,
2009-11-22, 02:22:04,VALID,1001.01,VALID,0,VALID,91.1651,VALID,0,VALID,25.6292,VALID,339,VALID,0.467969,
2009-11-22, 02:23:04,VALID,1000.98,VALID,0,VALID,91.3482,VALID,0,VALID,25.6292,VALID,339,VALID,0.342187,
2009-11-22, 02:24:04,VALID,1000.99,VALID,0,VALID,91.4016,VALID,0,VALID,25.6292,VALID,339,VALID,0.342578,
2009-11-22, 02:25:04,VALID,1000.99,VALID,0,VALID,91.4169,VALID,0,VALID,25.6486,VALID,339,VALID,0.284766,
2009-11-22, 02:26:04,VALID,1001,VALID,0,VALID,91.4474,VALID,0,VALID,25.67,VALID,339,VALID,0.507422,
2009-11-22, 02:27:04,VALID,1000.98,VALID,0,VALID,91.455,VALID,0,VALID,25.6486,VALID,343,VALID,0.560156,
2009-11-22, 02:28:04,VALID,1001.01,VALID,0,VALID,91.4092,VALID,0,VALID,25.6486,VALID,343,VALID,0.409375,
2009-11-22, 02:29:04,VALID,1001,VALID,0,VALID,91.4779,VALID,0,VALID,25.6292,VALID,343,VALID,0.465234,
2009-11-22, 02:30:04,VALID,1000.99,VALID,0,VALID,91.4626,VALID,0,VALID,25.6506,VALID,343,VALID,0.548437,
2009-11-22, 02:31:04,VALID,1001,VALID,0,VALID,91.3406,VALID,0,VALID,25.5902,VALID,343,VALID,0.492188,
2009-11-22, 02:32:04,VALID,1001.03,VALID,0,VALID,91.3635,VALID,0,VALID,25.5318,VALID,343,VALID,0.594531,
2009-11-22, 02:33:04,VALID,1000.99,VALID,0,VALID,91.4855,VALID,0,VALID,25.4928,VALID,343,VALID,0.509766,
2009-11-22, 02:34:04,VALID,1000.99,VALID,0,VALID,91.6381,VALID,0,VALID,25.4734,VALID,343,VALID,0.543359,
2009-11-22, 02:35:04,VALID,1001.01,VALID,0,VALID,91.7831,VALID,0,VALID,25.4539,VALID,343,VALID,0.304688,
2009-11-22, 02:36:04,VALID,1001.03,VALID,0,VALID,91.8365,VALID,0,VALID,25.4149,VALID,343,VALID,0.383984,
2009-11-22, 02:37:04,VALID,1000.99,VALID,0,VALID,91.9738,VALID,0,VALID,25.3955,VALID,343,VALID,0.3375,
2009-11-22, 02:38:04,VALID,1001,VALID,0,VALID,92.1721,VALID,0,VALID,25.376,VALID,343,VALID,0.358203,
2009-11-22, 02:39:04,VALID,1001.01,VALID,0,VALID,92.2484,VALID,0,VALID,25.3565,VALID,343,VALID,0.114453,
2009-11-22, 02:40:04,VALID,1000.99,VALID,0,VALID,92.2561,VALID,0.100563,VALID,25.337,VALID,343,VALID,0,
2009-11-22, 02:41:04,VALID,1001.02,VALID,0,VALID,92.2637,VALID,0,VALID,25.3176,VALID,343,VALID,0,
2009-11-22, 02:42:04,VALID,1001.01,VALID,0,VALID,92.4086,VALID,0,VALID,25.2981,VALID,343,VALID,0,
2009-11-22, 02:43:04,VALID,1001.03,VALID,0,VALID,92.4925,VALID,0,VALID,25.2981,VALID,340,VALID,0,
2009-11-22, 02:44:04,VALID,1001.01,VALID,0,VALID,92.5688,VALID,0,VALID,25.3176,VALID,336,VALID,0,
2009-11-22, 02:45:04,VALID,1001.05,VALID,0,VALID,92.5841,VALID,0,VALID,25.337,VALID,336,VALID,0,
2009-11-22, 02:46:04,VALID,1001,VALID,0,VALID,92.6222,VALID,0,VALID,25.3565,VALID,336,VALID,0.48125,
2009-11-22, 02:47:04,VALID,1001.04,VALID,0,VALID,92.607,VALID,0,VALID,25.3565,VALID,340,VALID,0.417969,
2009-11-22, 02:48:04,VALID,1001.05,VALID,0,VALID,92.5612,VALID,0,VALID,25.3974,VALID,340,VALID,0.428906,
2009-11-22, 02:49:04,VALID,1001.03,VALID,0,VALID,92.462,VALID,0,VALID,25.4169,VALID,340,VALID,0.373828,
2009-11-22, 02:50:04,VALID,1001.09,VALID,0,VALID,92.34,VALID,0,VALID,25.3955,VALID,340,VALID,0.271484,
2009-11-22, 02:51:04,VALID,1001.06,VALID,0,VALID,92.2789,VALID,0,VALID,25.4169,VALID,340,VALID,0.0632813,
2009-11-22, 02:52:04,VALID,1001.06,VALID,0,VALID,92.2637,VALID,0,VALID,25.4149,VALID,340,VALID,0,
2009-11-22, 02:53:04,VALID,1001.05,VALID,0,VALID,92.2866,VALID,0,VALID,25.3955,VALID,340,VALID,0,
2009-11-22, 02:54:04,VALID,1001.07,VALID,0,VALID,92.2866,VALID,0,VALID,25.3955,VALID,340,VALID,0,
2009-11-22, 02:55:04,VALID,1001.06,VALID,0,VALID,92.0958,VALID,0,VALID,25.376,VALID,340,VALID,0,
2009-11-22, 02:56:04,VALID,1001.07,VALID,0,VALID,92.0348,VALID,0,VALID,25.337,VALID,340,VALID,0,
2009-11-22, 02:57:04,VALID,1001.04,VALID,0,VALID,92.0272,VALID,0,VALID,25.3,VALID,340,VALID,0,
2009-11-22, 02:58:04,VALID,1001.06,VALID,0,VALID,92.2255,VALID,0,VALID,25.3,VALID,340,VALID,0,
2009-11-22, 02:59:04,VALID,1001.02,VALID,0,VALID,92.3552,VALID,0,VALID,25.2397,VALID,340,VALID,0,
2009-11-22, 03:00:04,VALID,1001.03,VALID,0,VALID,92.3095,VALID,0,VALID,25.2221,VALID,340,VALID,0,
2009-11-22, 03:01:04,VALID,1001.02,VALID,0,VALID,92.5231,VALID,0,VALID,25.2027,VALID,340,VALID,0,
2009-11-22, 03:02:04,VALID,1001.03,VALID,0,VALID,92.6375,VALID,0,VALID,25.1813,VALID,340,VALID,0,
2009-11-22, 03:03:04,VALID,1001.03,VALID,0,VALID,92.7596,VALID,0,VALID,25.2027,VALID,340,VALID,0,
2009-11-22, 03:04:04,VALID,1001.01,VALID,0,VALID,92.8282,VALID,0,VALID,25.2221,VALID,340,VALID,0,
2009-11-22, 03:05:04,VALID,1000.98,VALID,0,VALID,92.813,VALID,0,VALID,25.2007,VALID,340,VALID,0,
2009-11-22, 03:06:04,VALID,1001.01,VALID,0,VALID,92.8511,VALID,0,VALID,25.2027,VALID,340,VALID,0,
2009-11-22, 03:07:04,VALID,1001.03,VALID,0,VALID,92.874,VALID,0,VALID,25.2007,VALID,340,VALID,0,
2009-11-22, 03:08:04,VALID,1001,VALID,0,VALID,92.874,VALID,0,VALID,25.1813,VALID,340,VALID,0,
2009-11-22, 03:09:04,VALID,1001.01,VALID,0,VALID,92.9045,VALID,0,VALID,25.2007,VALID,340,VALID,0,
2009-11-22, 03:10:04,VALID,1000.99,VALID,0,VALID,92.9503,VALID,0,VALID,25.2007,VALID,340,VALID,0,
2009-11-22, 03:11:04,VALID,1000.96,VALID,0,VALID,92.9121,VALID,0,VALID,25.2007,VALID,340,VALID,0,
2009-11-22, 03:12:04,VALID,1000.98,VALID,0,VALID,92.9121,VALID,0,VALID,25.2007,VALID,340,VALID,0,
2009-11-22, 03:13:04,VALID,1000.96,VALID,0,VALID,92.9808,VALID,0,VALID,25.2416,VALID,340,VALID,0,
2009-11-22, 03:14:04,VALID,1001,VALID,0,VALID,92.9961,VALID,0,VALID,25.2611,VALID,340,VALID,0.164453,
2009-11-22, 03:15:04,VALID,1000.97,VALID,0,VALID,92.8282,VALID,0,VALID,25.2221,VALID,340,VALID,0,
2009-11-22, 03:16:04,VALID,1000.96,VALID,0,VALID,92.8282,VALID,0,VALID,25.2221,VALID,340,VALID,0,
2009-11-22, 03:17:04,VALID,1000.99,VALID,0,VALID,92.8358,VALID,0.100563,VALID,25.2416,VALID,340,VALID,0.432031,
2009-11-22, 03:18:04,VALID,1001,VALID,0,VALID,92.8892,VALID,0,VALID,25.2202,VALID,340,VALID,0.433203,
2009-11-22, 03:19:04,VALID,1000.99,VALID,0,VALID,92.8816,VALID,0,VALID,25.2397,VALID,339,VALID,0.401953,
2009-11-22, 03:20:04,VALID,1001.03,VALID,0,VALID,92.874,VALID,0,VALID,25.2416,VALID,339,VALID,0.281641,
2009-11-22, 03:21:04,VALID,1001.03,VALID,0,VALID,92.8282,VALID,0,VALID,25.2611,VALID,339,VALID,0.232031,
2009-11-22, 03:22:04,VALID,1001.03,VALID,0,VALID,92.7672,VALID,0,VALID,25.2202,VALID,339,VALID,0.425,
2009-11-22, 03:23:04,VALID,1001.04,VALID,0,VALID,92.7596,VALID,0,VALID,25.1813,VALID,339,VALID,0.426562,
2009-11-22, 03:24:04,VALID,1001.05,VALID,0,VALID,92.7443,VALID,0,VALID,25.1832,VALID,339,VALID,0.411719,
2009-11-22, 03:25:04,VALID,1001.1,VALID,0,VALID,92.7596,VALID,0,VALID,25.1229,VALID,339,VALID,0.411328,
2009-11-22, 03:26:04,VALID,1001.08,VALID,0,VALID,92.7596,VALID,0,VALID,25.0839,VALID,339,VALID,0.303125,
2009-11-22, 03:27:04,VALID,1001.08,VALID,0,VALID,92.874,VALID,0.100563,VALID,25.0644,VALID,339,VALID,0.272266,
2009-11-22, 03:28:04,VALID,1001.06,VALID,0,VALID,92.9579,VALID,0,VALID,25.045,VALID,339,VALID,0.3,
2009-11-22, 03:29:04,VALID,1001.1,VALID,0,VALID,93.1639,VALID,0,VALID,25.045,VALID,339,VALID,0.285156,
2009-11-22, 03:30:04,VALID,1001.11,VALID,0,VALID,93.3088,VALID,0,VALID,25.0663,VALID,339,VALID,0.394141,
2009-11-22, 03:31:04,VALID,1001.12,VALID,0,VALID,93.408,VALID,0,VALID,25.0839,VALID,339,VALID,0.448047,
2009-11-22, 03:32:04,VALID,1001.09,VALID,0,VALID,93.4004,VALID,0,VALID,25.045,VALID,339,VALID,0.364844,
2009-11-22, 03:33:04,VALID,1001.11,VALID,0,VALID,93.3699,VALID,0,VALID,25.006,VALID,339,VALID,0.296484,
2009-11-22, 03:34:04,VALID,1001.09,VALID,0,VALID,93.3775,VALID,0,VALID,25.006,VALID,339,VALID,0.244922,
2009-11-22, 03:35:04,VALID,1001.12,VALID,0,VALID,93.3317,VALID,0,VALID,24.9866,VALID,339,VALID,0.339063,
2009-11-22, 03:36:04,VALID,1001.12,VALID,0,VALID,93.4156,VALID,0,VALID,25.0079,VALID,339,VALID,0.316406,
2009-11-22, 03:37:04,VALID,1001.11,VALID,0,VALID,93.4919,VALID,0.100563,VALID,24.9866,VALID,339,VALID,0.350391,
2009-11-22, 03:38:04,VALID,1001.12,VALID,0,VALID,93.5911,VALID,0,VALID,25.0469,VALID,339,VALID,0.460156,
2009-11-22, 03:39:04,VALID,1001.16,VALID,0,VALID,93.675,VALID,0,VALID,25.0663,VALID,339,VALID,0.261328,
2009-11-22, 03:40:04,VALID,1001.16,VALID,0,VALID,93.7361,VALID,0,VALID,25.0644,VALID,339,VALID,0.468359,
2009-11-22, 03:41:04,VALID,1001.14,VALID,0,VALID,93.7361,VALID,0,VALID,25.1053,VALID,339,VALID,0.358984,
2009-11-22, 03:42:04,VALID,1001.13,VALID,0,VALID,93.7437,VALID,0,VALID,25.0839,VALID,339,VALID,0.263281,
2009-11-22, 03:43:04,VALID,1001.17,VALID,0,VALID,93.6369,VALID,0,VALID,25.1267,VALID,339,VALID,0.397656,